Time,TemperatureF,DewpointF,PressureIn,WindDirection,WindDirectionDegrees,WindSpeedMPH,WindSpeedGustMPH,Humidity,HourlyPrecipIn,Conditions,Clouds,dailyrainin,SolarRadiationWatts/m^2,SoftwareType,DateUTC
2017-03-29 00:02:00,38.7,38.7,30.27,NE,44,0.0,0.0,100,0.00,,,0.00,0,WeatherHawk,2017-03-29 05:02:00,
2017-03-29 00:07:00,39.1,39.1,30.27,SSW,193,1.0,3.0,100,0.00,,,0.00,0,WeatherHawk,2017-03-29 05:07:00,
2017-03-29 00:12:00,38.6,38.6,30.27,East,84,0.0,3.0,100,0.00,,,0.00,1,WeatherHawk,2017-03-29 05:12:00,
2017-03-29 00:17:00,39.2,39.2,30.27,NE,51,2.0,4.0,100,0.00,,,0.00,0,WeatherHawk,2017-03-29 05:17:00,
2017-03-29 00:22:00,38.9,38.9,30.27,ENE,73,0.0,4.0,100,0.00,,,0.00,1,WeatherHawk,2017-03-29 05:22:00,
2017-03-29 00:28:00,38.8,38.8,30.27,East,101,1.0,4.0,100,0.00,,,0.00,0,WeatherHawk,2017-03-29 05:28:00,
2017-03-29 00:33:00,39.5,39.5,30.26,East,97,5.0,5.0,100,0.00,,,0.00,0,WeatherHawk,2017-03-29 05:33:00,
2017-03-29 00:38:00,38.7,38.7,30.27,ENE,73,0.0,5.0,100,0.00,,,0.00,0,WeatherHawk,2017-03-29 05:38:00,
2017-03-29 00:44:00,38.8,38.8,30.26,East,84,1.0,5.0,100,0.00,,,0.00,0,WeatherHawk,2017-03-29 05:44:00,
2017-03-29 00:49:00,38.5,38.2,30.27,ESE,121,0.0,5.0,99,0.00,,,0.00,0,WeatherHawk,2017-03-29 05:49:00,
2017-03-29 00:54:00,38.3,37.5,30.26,ENE,63,0.0,5.0,97,0.00,,,0.00,1,WeatherHawk,2017-03-29 05:54:00,
2017-03-29 00:59:00,38.2,37.4,30.26,South,170,0.0,4.0,97,0.00,,,0.00,0,WeatherHawk,2017-03-29 05:59:00,
2017-03-29 01:04:00,37.5,36.5,30.26,NE,42,1.0,4.0,96,0.00,,,0.00,0,WeatherHawk,2017-03-29 06:04:00,
2017-03-29 01:09:00,38.0,37.3,30.26,East,80,2.0,4.0,97,0.00,,,0.00,0,WeatherHawk,2017-03-29 06:09:00,
2017-03-29 01:14:00,37.2,36.5,30.26,ENE,64,0.0,4.0,97,0.00,,,0.00,0,WeatherHawk,2017-03-29 06:14:00,
2017-03-29 01:19:00,37.2,36.4,30.25,ENE,57,0.0,5.0,97,0.00,,,0.00,0,WeatherHawk,2017-03-29 06:19:00,
2017-03-29 01:24:00,37.5,36.8,30.26,East,89,3.0,5.0,97,0.00,,,0.00,0,WeatherHawk,2017-03-29 06:24:00,
2017-03-29 01:29:00,36.7,36.2,30.26,NNE,33,1.0,4.0,98,0.00,,,0.00,0,WeatherHawk,2017-03-29 06:29:00,
2017-03-29 01:34:00,36.6,36.4,30.25,NNE,33,0.0,-999.0,99,0.00,,,0.00,0,WeatherHawk,2017-03-29 06:34:00,
2017-03-29 01:39:00,36.5,36.5,30.25,NE,46,0.0,3.0,100,0.00,,,0.00,0,WeatherHawk,2017-03-29 06:39:00,
2017-03-29 01:44:00,36.5,36.5,30.24,ENE,74,0.0,3.0,100,0.00,,,0.00,0,WeatherHawk,2017-03-29 06:44:00,
2017-03-29 01:49:00,36.2,36.2,30.25,East,85,0.0,2.0,100,0.00,,,0.00,0,WeatherHawk,2017-03-29 06:49:00,
2017-03-29 01:54:00,35.9,35.9,30.25,ESE,112,0.0,2.0,100,0.00,,,0.00,0,WeatherHawk,2017-03-29 06:54:00,
2017-03-29 01:59:00,36.1,36.1,30.26,ENE,70,0.0,3.0,100,0.00,,,0.00,0,WeatherHawk,2017-03-29 06:59:00,
2017-03-29 02:04:00,35.8,35.8,30.26,ENE,71,0.0,3.0,100,0.00,,,0.00,0,WeatherHawk,2017-03-29 07:04:00,
2017-03-29 02:09:00,35.6,35.6,30.27,ESE,123,0.0,2.0,100,0.00,,,0.00,0,WeatherHawk,2017-03-29 07:09:00,
2017-03-29 02:14:00,35.1,35.1,30.26,ESE,123,0.0,2.0,100,0.00,,,0.00,0,WeatherHawk,2017-03-29 07:14:00,
2017-03-29 02:19:00,35.0,35.0,30.26,ESE,123,0.0,2.0,100,0.00,,,0.00,0,WeatherHawk,2017-03-29 07:19:00,
2017-03-29 02:24:00,34.1,34.1,30.27,ESE,123,0.0,-999.0,100,0.00,,,0.00,0,WeatherHawk,2017-03-29 07:24:00,
2017-03-29 02:29:00,33.2,33.2,30.28,ESE,123,0.0,0.0,100,0.00,,,0.00,0,WeatherHawk,2017-03-29 07:29:00,
2017-03-29 02:34:00,34.0,34.0,30.26,ESE,123,0.0,0.0,100,0.00,,,0.00,1,WeatherHawk,2017-03-29 07:34:00,
2017-03-29 02:39:00,33.2,33.2,30.27,ESE,123,0.0,0.0,100,0.00,,,0.00,0,WeatherHawk,2017-03-29 07:39:00,
2017-03-29 02:44:00,33.7,33.7,30.27,ESE,123,0.0,0.0,100,0.00,,,0.00,0,WeatherHawk,2017-03-29 07:44:00,
2017-03-29 02:49:00,32.3,32.3,30.27,ESE,123,0.0,0.0,100,0.00,,,0.00,0,WeatherHawk,2017-03-29 07:49:00,
2017-03-29 02:54:00,32.9,32.9,30.27,ESE,123,0.0,0.0,100,0.00,,,0.00,0,WeatherHawk,2017-03-29 07:54:00,
2017-03-29 02:59:00,32.8,32.8,30.27,ESE,123,0.0,0.0,100,0.00,,,0.00,0,WeatherHawk,2017-03-29 07:59:00,
2017-03-29 03:04:00,32.5,32.5,30.26,ESE,123,0.0,0.0,100,0.00,,,0.00,0,WeatherHawk,2017-03-29 08:04:00,
2017-03-29 03:09:00,32.2,32.2,30.27,ESE,123,0.0,0.0,100,0.00,,,0.00,0,WeatherHawk,2017-03-29 08:09:00,
2017-03-29 03:14:00,31.0,31.0,30.27,ESE,123,0.0,0.0,100,0.00,,,0.00,0,WeatherHawk,2017-03-29 08:14:00,
2017-03-29 03:19:00,32.3,32.3,30.27,ESE,123,0.0,0.0,100,0.00,,,0.00,0,WeatherHawk,2017-03-29 08:19:00,
2017-03-29 03:24:00,32.2,32.2,30.27,SSE,148,1.0,0.0,100,0.00,,,0.00,0,WeatherHawk,2017-03-29 08:24:00,
2017-03-29 03:29:00,32.2,32.2,30.28,SSE,148,0.0,0.0,100,0.00,,,0.00,0,WeatherHawk,2017-03-29 08:29:00,
2017-03-29 03:34:00,31.9,31.9,30.28,SSE,148,0.0,0.0,100,0.00,,,0.00,0,WeatherHawk,2017-03-29 08:34:00,
2017-03-29 03:39:00,32.2,32.2,30.27,SSE,152,0.0,0.0,100,0.00,,,0.00,0,WeatherHawk,2017-03-29 08:39:00,
2017-03-29 03:44:00,32.3,32.3,30.26,SSE,153,0.0,0.0,100,0.00,,,0.00,0,WeatherHawk,2017-03-29 08:44:00,
2017-03-29 03:49:00,32.2,32.2,30.26,SE,141,0.0,0.0,100,0.00,,,0.00,0,WeatherHawk,2017-03-29 08:49:00,
2017-03-29 03:54:00,31.9,31.9,30.26,East,85,0.0,0.0,100,0.00,,,0.00,0,WeatherHawk,2017-03-29 08:54:00,
2017-03-29 03:59:00,31.8,31.8,30.26,East,85,0.0,2.0,100,0.00,,,0.00,1,WeatherHawk,2017-03-29 08:59:00,
2017-03-29 04:04:00,31.6,31.6,30.26,East,85,0.0,2.0,100,0.00,,,0.00,0,WeatherHawk,2017-03-29 09:04:00,
2017-03-29 04:09:00,31.9,31.9,30.27,East,85,0.0,0.0,100,0.00,,,0.00,0,WeatherHawk,2017-03-29 09:09:00,
2017-03-29 04:14:00,31.8,31.8,30.26,NE,44,0.0,0.0,100,0.00,,,0.00,0,WeatherHawk,2017-03-29 09:14:00,
2017-03-29 04:19:00,31.9,31.9,30.26,North,9,2.0,0.0,100,0.00,,,0.00,0,WeatherHawk,2017-03-29 09:19:00,
2017-03-29 04:24:00,31.8,31.8,30.26,NNE,20,3.0,0.0,100,0.00,,,0.00,0,WeatherHawk,2017-03-29 09:24:00,
2017-03-29 04:29:00,31.7,31.7,30.26,NNE,23,2.0,3.0,100,0.00,,,0.00,0,WeatherHawk,2017-03-29 09:29:00,
2017-03-29 04:35:00,31.7,31.7,30.27,NNE,19,2.0,0.0,100,0.00,,,0.00,0,WeatherHawk,2017-03-29 09:35:00,
2017-03-29 04:40:00,31.5,31.5,30.27,NE,41,0.0,0.0,100,0.00,,,0.00,0,WeatherHawk,2017-03-29 09:40:00,
2017-03-29 04:46:00,31.3,31.3,30.27,NNE,18,0.0,2.0,100,0.00,,,0.00,0,WeatherHawk,2017-03-29 09:46:00,
2017-03-29 04:51:00,31.1,31.1,30.28,North,0,0.0,2.0,100,0.00,,,0.00,1,WeatherHawk,2017-03-29 09:51:00,
2017-03-29 04:56:00,31.0,31.0,30.28,North,0,0.0,2.0,100,0.00,,,0.00,0,WeatherHawk,2017-03-29 09:56:00,
2017-03-29 05:01:00,31.0,31.0,30.28,North,0,0.0,2.0,100,0.00,,,0.00,0,WeatherHawk,2017-03-29 10:01:00,
2017-03-29 05:06:00,30.8,30.8,30.28,North,6,0.0,0.0,100,0.00,,,0.00,0,WeatherHawk,2017-03-29 10:06:00,
2017-03-29 05:11:00,30.7,30.7,30.28,NNE,31,0.0,0.0,100,0.00,,,0.00,0,WeatherHawk,2017-03-29 10:11:00,
2017-03-29 05:16:00,30.7,30.7,30.28,NNE,31,0.0,0.0,100,0.00,,,0.00,0,WeatherHawk,2017-03-29 10:16:00,
2017-03-29 05:21:00,30.5,30.5,30.28,NNE,31,0.0,0.0,100,0.00,,,0.00,0,WeatherHawk,2017-03-29 10:21:00,
2017-03-29 05:26:00,30.6,30.6,30.28,North,1,0.0,0.0,100,0.00,,,0.00,1,WeatherHawk,2017-03-29 10:26:00,
2017-03-29 05:31:00,30.7,30.7,30.29,North,6,0.0,0.0,100,0.00,,,0.00,0,WeatherHawk,2017-03-29 10:31:00,
2017-03-29 05:36:00,30.6,30.6,30.28,NE,35,0.0,0.0,100,0.00,,,0.00,0,WeatherHawk,2017-03-29 10:36:00,
2017-03-29 05:41:00,30.8,30.8,30.29,East,80,0.0,0.0,100,0.00,,,0.00,1,WeatherHawk,2017-03-29 10:41:00,
2017-03-29 05:46:00,30.9,30.9,30.29,ENE,62,2.0,0.0,100,0.00,,,0.00,0,WeatherHawk,2017-03-29 10:46:00,
2017-03-29 05:51:00,31.0,31.0,30.29,NNE,20,1.0,0.0,100,0.00,,,0.00,0,WeatherHawk,2017-03-29 10:51:00,
2017-03-29 05:56:00,31.2,31.2,30.29,East,86,0.0,0.0,100,0.00,,,0.00,0,WeatherHawk,2017-03-29 10:56:00,
2017-03-29 06:01:00,31.2,31.2,30.30,East,86,0.0,0.0,100,0.00,,,0.00,0,WeatherHawk,2017-03-29 11:01:00,
2017-03-29 06:06:00,31.2,31.2,30.30,NNE,28,0.0,0.0,100,0.00,,,0.00,0,WeatherHawk,2017-03-29 11:06:00,
2017-03-29 06:11:00,31.3,31.3,30.29,NNE,27,1.0,0.0,100,0.00,,,0.00,0,WeatherHawk,2017-03-29 11:11:00,
2017-03-29 06:16:00,31.3,31.3,30.30,NNE,15,0.0,0.0,100,0.00,,,0.00,0,WeatherHawk,2017-03-29 11:16:00,
2017-03-29 06:21:00,31.5,31.5,30.30,East,100,0.0,0.0,100,0.00,,,0.00,0,WeatherHawk,2017-03-29 11:21:00,
2017-03-29 06:26:00,31.6,31.6,30.30,NE,38,0.0,0.0,100,0.00,,,0.00,0,WeatherHawk,2017-03-29 11:26:00,
2017-03-29 06:31:00,31.6,31.6,30.30,NNE,22,4.0,0.0,100,0.00,,,0.00,0,WeatherHawk,2017-03-29 11:31:00,
2017-03-29 06:36:00,31.7,31.7,30.30,NE,40,0.0,0.0,100,0.00,,,0.00,3,WeatherHawk,2017-03-29 11:36:00,
2017-03-29 06:41:00,31.7,31.7,30.30,NE,40,2.0,0.0,100,0.00,,,0.00,7,WeatherHawk,2017-03-29 11:41:00,
2017-03-29 06:46:00,31.8,31.8,30.30,North,3,2.0,0.0,100,0.00,,,0.00,6,WeatherHawk,2017-03-29 11:46:00,
2017-03-29 06:51:00,31.8,31.8,30.30,North,351,1.0,0.0,100,0.00,,,0.00,8,WeatherHawk,2017-03-29 11:51:00,
2017-03-29 06:56:00,31.9,31.9,30.30,NE,46,0.0,4.0,100,0.00,,,0.00,11,WeatherHawk,2017-03-29 11:56:00,
2017-03-29 07:02:00,31.9,31.9,30.30,North,5,0.0,4.0,100,0.00,,,0.00,15,WeatherHawk,2017-03-29 12:02:00,
2017-03-29 07:07:00,32.0,32.0,30.30,NNE,14,3.0,0.0,100,0.00,,,0.00,20,WeatherHawk,2017-03-29 12:07:00,
2017-03-29 07:12:00,32.0,32.0,30.30,NNE,13,0.0,0.0,100,0.00,,,0.00,28,WeatherHawk,2017-03-29 12:12:00,
2017-03-29 07:17:00,32.1,32.1,30.29,NE,53,2.0,0.0,100,0.00,,,0.00,36,WeatherHawk,2017-03-29 12:17:00,
2017-03-29 07:22:00,32.4,32.4,30.29,NNE,22,0.0,0.0,100,0.00,,,0.00,38,WeatherHawk,2017-03-29 12:22:00,
2017-03-29 07:24:00,32.5,32.5,30.30,NNE,24,0.0,0.0,100,0.00,,,0.00,48,WeatherHawk,2017-03-29 12:24:00,
2017-03-29 07:29:00,32.7,32.7,30.29,NNE,16,1.0,0.0,100,0.00,,,0.00,54,WeatherHawk,2017-03-29 12:29:00,
2017-03-29 07:34:00,32.9,32.9,30.30,NNE,16,0.0,0.0,100,0.00,,,0.00,56,WeatherHawk,2017-03-29 12:34:00,
2017-03-29 07:39:00,33.1,33.1,30.29,NNE,16,0.0,3.0,100,0.00,,,0.00,59,WeatherHawk,2017-03-29 12:39:00,
2017-03-29 07:44:00,33.3,33.3,30.30,NNE,18,0.0,3.0,100,0.00,,,0.00,66,WeatherHawk,2017-03-29 12:44:00,
2017-03-29 07:49:00,33.8,33.8,30.29,North,8,0.0,3.0,100,0.00,,,0.00,73,WeatherHawk,2017-03-29 12:49:00,
2017-03-29 07:54:00,34.0,34.0,30.30,NNE,23,1.0,3.0,100,0.00,,,0.00,76,WeatherHawk,2017-03-29 12:54:00,
2017-03-29 07:59:00,34.2,34.2,30.31,NNE,32,0.0,0.0,100,0.00,,,0.00,83,WeatherHawk,2017-03-29 12:59:00,
2017-03-29 08:04:00,34.4,34.4,30.31,North,8,2.0,0.0,100,0.00,,,0.00,89,WeatherHawk,2017-03-29 13:04:00,
2017-03-29 08:09:00,34.9,34.9,30.32,NE,56,2.0,0.0,100,0.00,,,0.00,88,WeatherHawk,2017-03-29 13:09:00,
2017-03-29 08:14:00,34.7,34.7,30.30,ENE,71,2.0,0.0,100,0.00,,,0.00,88,WeatherHawk,2017-03-29 13:14:00,
2017-03-29 08:19:00,34.8,34.8,30.31,NNE,19,1.0,0.0,100,0.00,,,0.00,94,WeatherHawk,2017-03-29 13:19:00,
2017-03-29 08:24:00,35.1,35.1,30.30,NE,45,3.0,0.0,100,0.00,,,0.00,101,WeatherHawk,2017-03-29 13:24:00,
2017-03-29 08:29:00,35.3,35.3,30.30,NNE,31,3.0,0.0,100,0.00,,,0.00,104,WeatherHawk,2017-03-29 13:29:00,
2017-03-29 08:34:00,35.4,35.4,30.29,NNE,32,0.0,0.0,100,0.00,,,0.00,106,WeatherHawk,2017-03-29 13:34:00,
2017-03-29 08:36:00,35.5,35.5,30.30,NNE,28,2.0,0.0,100,0.00,,,0.00,108,WeatherHawk,2017-03-29 13:36:00,
2017-03-29 08:41:00,35.9,35.9,30.31,NE,45,1.0,0.0,100,0.00,,,0.00,105,WeatherHawk,2017-03-29 13:41:00,
2017-03-29 08:47:00,35.9,35.9,30.30,NE,50,3.0,0.0,100,0.00,,,0.00,106,WeatherHawk,2017-03-29 13:47:00,
2017-03-29 08:52:00,36.3,36.3,30.30,North,8,0.0,0.0,100,0.00,,,0.00,111,WeatherHawk,2017-03-29 13:52:00,
2017-03-29 08:57:00,36.4,36.4,30.31,NE,42,2.0,0.0,100,0.00,,,0.00,111,WeatherHawk,2017-03-29 13:57:00,
2017-03-29 09:03:00,36.7,36.7,30.30,NE,48,3.0,0.0,100,0.00,,,0.00,130,WeatherHawk,2017-03-29 14:03:00,
2017-03-29 09:08:00,37.3,37.3,30.31,NE,51,0.0,5.0,100,0.00,,,0.00,126,WeatherHawk,2017-03-29 14:08:00,
2017-03-29 09:13:00,37.1,36.9,30.32,East,97,3.0,5.0,99,0.00,,,0.00,129,WeatherHawk,2017-03-29 14:13:00,
2017-03-29 09:18:00,37.4,36.9,30.32,NE,39,0.0,5.0,98,0.00,,,0.00,132,WeatherHawk,2017-03-29 14:18:00,
2017-03-29 09:24:00,37.8,37.0,30.31,NE,53,1.0,5.0,97,0.00,,,0.00,139,WeatherHawk,2017-03-29 14:24:00,
2017-03-29 09:29:00,37.9,37.1,30.33,ENE,58,3.0,4.0,97,0.00,,,0.00,142,WeatherHawk,2017-03-29 14:29:00,
2017-03-29 09:34:00,37.9,36.9,30.32,NE,52,3.0,4.0,96,0.00,,,0.00,147,WeatherHawk,2017-03-29 14:34:00,
2017-03-29 09:39:00,38.8,37.8,30.34,ENE,77,0.0,5.0,96,0.00,,,0.00,150,WeatherHawk,2017-03-29 14:39:00,
2017-03-29 09:44:00,38.5,37.2,30.33,NE,48,2.0,5.0,95,0.00,,,0.00,144,WeatherHawk,2017-03-29 14:44:00,
2017-03-29 09:49:00,38.5,37.2,30.32,NE,35,4.0,0.0,95,0.00,,,0.00,155,WeatherHawk,2017-03-29 14:49:00,
2017-03-29 09:54:00,38.9,37.6,30.33,ENE,63,2.0,0.0,95,0.00,,,0.00,174,WeatherHawk,2017-03-29 14:54:00,
2017-03-29 09:59:00,39.2,37.6,30.32,North,11,3.0,0.0,94,0.00,,,0.00,204,WeatherHawk,2017-03-29 14:59:00,
2017-03-29 10:04:00,40.1,38.5,30.32,NNE,13,0.0,0.0,94,0.00,,,0.00,213,WeatherHawk,2017-03-29 15:04:00,
2017-03-29 10:09:00,39.8,38.2,30.32,NNE,33,2.0,0.0,94,0.00,,,0.00,194,WeatherHawk,2017-03-29 15:09:00,
2017-03-29 10:14:00,39.4,37.5,30.32,NNW,331,5.0,0.0,93,0.00,,,0.00,160,WeatherHawk,2017-03-29 15:14:00,
2017-03-29 10:19:00,39.4,37.9,30.32,NE,35,5.0,7.0,94,0.00,,,0.00,147,WeatherHawk,2017-03-29 15:19:00,
2017-03-29 10:24:00,39.6,38.0,30.31,North,1,5.0,7.0,94,0.00,,,0.00,137,WeatherHawk,2017-03-29 15:24:00,
2017-03-29 10:29:00,39.6,37.8,30.31,NE,42,5.0,6.0,93,0.00,,,0.00,155,WeatherHawk,2017-03-29 15:29:00,
2017-03-29 10:34:00,39.6,38.0,30.30,NE,39,6.0,6.0,94,0.00,,,0.00,162,WeatherHawk,2017-03-29 15:34:00,
2017-03-29 10:39:00,40.3,38.7,30.32,NE,46,2.0,0.0,94,0.00,,,0.00,162,WeatherHawk,2017-03-29 15:39:00,
2017-03-29 10:44:00,40.2,38.7,30.31,NE,48,4.0,0.0,94,0.00,,,0.00,157,WeatherHawk,2017-03-29 15:44:00,
2017-03-29 10:49:00,40.3,38.5,30.31,NE,48,4.0,6.0,93,0.00,,,0.00,150,WeatherHawk,2017-03-29 15:49:00,
2017-03-29 10:54:00,40.7,38.6,30.31,NE,46,4.0,6.0,92,0.00,,,0.00,147,WeatherHawk,2017-03-29 15:54:00,
2017-03-29 10:59:00,41.0,38.9,30.32,NNW,342,3.0,7.0,92,0.00,,,0.00,140,WeatherHawk,2017-03-29 15:59:00,
2017-03-29 11:04:00,41.0,38.5,30.31,NE,38,5.0,7.0,91,0.00,,,0.00,146,WeatherHawk,2017-03-29 16:04:00,
2017-03-29 11:09:00,41.9,39.8,30.32,NNE,23,1.0,0.0,92,0.00,,,0.00,170,WeatherHawk,2017-03-29 16:09:00,
2017-03-29 11:14:00,41.4,39.0,30.32,ENE,62,4.0,0.0,91,0.00,,,0.00,181,WeatherHawk,2017-03-29 16:14:00,
2017-03-29 11:19:00,41.8,38.8,30.32,ENE,63,3.0,0.0,89,0.00,,,0.00,204,WeatherHawk,2017-03-29 16:19:00,
2017-03-29 11:24:00,41.8,38.6,30.32,ENE,70,4.0,0.0,88,0.00,,,0.00,216,WeatherHawk,2017-03-29 16:24:00,
2017-03-29 11:29:00,42.0,38.4,30.32,North,4,4.0,7.0,87,0.00,,,0.00,276,WeatherHawk,2017-03-29 16:29:00,
2017-03-29 11:34:00,42.9,39.0,30.31,NE,35,6.0,7.0,86,0.00,,,0.00,260,WeatherHawk,2017-03-29 16:34:00,
2017-03-29 11:39:00,43.0,38.8,30.30,NE,51,4.0,0.0,85,0.00,,,0.00,248,WeatherHawk,2017-03-29 16:39:00,
2017-03-29 11:44:00,42.7,37.9,30.31,ENE,68,4.0,0.0,83,0.00,,,0.00,252,WeatherHawk,2017-03-29 16:44:00,
2017-03-29 11:49:00,43.5,38.1,30.31,SE,126,6.0,0.0,81,0.00,,,0.00,206,WeatherHawk,2017-03-29 16:49:00,
2017-03-29 11:54:00,43.3,37.5,30.31,East,88,6.0,0.0,80,0.00,,,0.00,180,WeatherHawk,2017-03-29 16:54:00,
2017-03-29 11:59:00,43.4,37.6,30.30,NE,47,6.0,0.0,80,0.00,,,0.00,198,WeatherHawk,2017-03-29 16:59:00,
2017-03-29 12:04:00,43.6,37.8,30.30,NE,48,6.0,0.0,80,0.00,,,0.00,219,WeatherHawk,2017-03-29 17:04:00,
2017-03-29 12:09:00,43.6,38.1,30.31,NE,48,5.0,9.0,81,0.00,,,0.00,239,WeatherHawk,2017-03-29 17:09:00,
2017-03-29 12:14:00,44.0,38.3,30.29,NE,51,4.0,9.0,80,0.00,,,0.00,232,WeatherHawk,2017-03-29 17:14:00,
2017-03-29 12:20:00,44.0,38.2,30.29,NE,52,7.0,0.0,80,0.00,,,0.00,213,WeatherHawk,2017-03-29 17:20:00,
2017-03-29 12:26:00,44.5,39.1,30.29,NE,55,3.0,0.0,81,0.00,,,0.00,212,WeatherHawk,2017-03-29 17:26:00,
2017-03-29 12:31:00,45.2,39.7,30.30,East,86,3.0,0.0,81,0.00,,,0.00,217,WeatherHawk,2017-03-29 17:31:00,
2017-03-29 12:37:00,44.9,39.2,30.29,NE,55,4.0,10.0,80,0.00,,,0.00,278,WeatherHawk,2017-03-29 17:37:00,
2017-03-29 12:43:00,45.7,39.2,30.29,NE,38,4.0,10.0,78,0.00,,,0.00,326,WeatherHawk,2017-03-29 17:43:00,
2017-03-29 12:48:00,46.5,39.3,30.29,SE,130,5.0,8.0,76,0.00,,,0.00,381,WeatherHawk,2017-03-29 17:48:00,
2017-03-29 12:53:00,47.2,39.3,30.29,ENE,66,3.0,8.0,74,0.00,,,0.00,368,WeatherHawk,2017-03-29 17:53:00,
2017-03-29 12:59:00,46.7,36.4,30.29,ENE,76,9.0,9.0,67,0.00,,,0.00,284,WeatherHawk,2017-03-29 17:59:00,
2017-03-29 13:04:00,47.3,35.7,30.30,East,94,5.0,8.0,64,0.00,,,0.00,245,WeatherHawk,2017-03-29 18:04:00,
2017-03-29 13:09:00,46.8,34.1,30.29,NNE,32,7.0,0.0,61,0.00,,,0.00,276,WeatherHawk,2017-03-29 18:09:00,
2017-03-29 13:14:00,46.6,33.9,30.30,ENE,78,4.0,0.0,61,0.00,,,0.00,233,WeatherHawk,2017-03-29 18:14:00,
2017-03-29 13:19:00,46.6,33.4,30.30,East,82,8.0,9.0,60,0.00,,,0.00,219,WeatherHawk,2017-03-29 18:19:00,
2017-03-29 13:24:00,47.3,34.9,30.30,South,172,2.0,9.0,62,0.00,,,0.00,237,WeatherHawk,2017-03-29 18:24:00,
2017-03-29 13:29:00,46.9,33.8,30.30,East,81,5.0,0.0,60,0.00,,,0.00,243,WeatherHawk,2017-03-29 18:29:00,
2017-03-29 13:34:00,47.8,34.6,30.29,ESE,104,3.0,0.0,60,0.00,,,0.00,273,WeatherHawk,2017-03-29 18:34:00,
2017-03-29 13:39:00,47.2,33.2,30.29,NE,42,6.0,8.0,58,0.00,,,0.00,211,WeatherHawk,2017-03-29 18:39:00,
2017-03-29 13:44:00,47.9,34.7,30.29,NE,51,2.0,8.0,60,0.00,,,0.00,216,WeatherHawk,2017-03-29 18:44:00,
2017-03-29 13:49:00,47.5,33.5,30.29,SE,126,7.0,0.0,58,0.00,,,0.00,212,WeatherHawk,2017-03-29 18:49:00,
2017-03-29 13:54:00,47.1,33.1,30.28,NE,50,7.0,0.0,58,0.00,,,0.00,176,WeatherHawk,2017-03-29 18:54:00,
2017-03-29 13:59:00,47.4,33.4,30.28,SSE,162,6.0,8.0,58,0.00,,,0.00,175,WeatherHawk,2017-03-29 18:59:00,
2017-03-29 14:04:00,47.1,32.3,30.28,ESE,117,6.0,8.0,56,0.00,,,0.00,201,WeatherHawk,2017-03-29 19:04:00,
2017-03-29 14:09:00,47.6,32.7,30.28,ESE,104,4.0,0.0,56,0.00,,,0.00,189,WeatherHawk,2017-03-29 19:09:00,
2017-03-29 14:14:00,47.4,32.1,30.27,ESE,111,5.0,0.0,55,0.00,,,0.00,183,WeatherHawk,2017-03-29 19:14:00,
2017-03-29 14:19:00,47.6,32.7,30.27,East,99,5.0,0.0,56,0.00,,,0.00,177,WeatherHawk,2017-03-29 19:19:00,
2017-03-29 14:24:00,47.3,32.0,30.27,East,80,7.0,0.0,55,0.00,,,0.00,188,WeatherHawk,2017-03-29 19:24:00,
2017-03-29 14:29:00,47.6,32.7,30.26,East,98,4.0,9.0,56,0.00,,,0.00,203,WeatherHawk,2017-03-29 19:29:00,
2017-03-29 14:34:00,47.4,33.0,30.26,NE,36,4.0,9.0,57,0.00,,,0.00,218,WeatherHawk,2017-03-29 19:34:00,
2017-03-29 14:39:00,47.5,32.6,30.25,East,85,5.0,0.0,56,0.00,,,0.00,189,WeatherHawk,2017-03-29 19:39:00,
2017-03-29 14:44:00,47.5,33.4,30.25,NE,37,7.0,0.0,58,0.00,,,0.00,223,WeatherHawk,2017-03-29 19:44:00,
2017-03-29 14:49:00,48.0,33.5,30.25,NNE,30,4.0,0.0,57,0.00,,,0.00,240,WeatherHawk,2017-03-29 19:49:00,
2017-03-29 14:54:00,47.1,31.3,30.25,ENE,73,8.0,0.0,54,0.00,,,0.00,180,WeatherHawk,2017-03-29 19:54:00,
2017-03-29 14:59:00,47.7,33.6,30.24,ENE,64,5.0,0.0,58,0.00,,,0.00,196,WeatherHawk,2017-03-29 19:59:00,
2017-03-29 15:04:00,47.0,32.5,30.23,East,99,9.0,0.0,57,0.00,,,0.00,166,WeatherHawk,2017-03-29 20:04:00,
2017-03-29 15:09:00,47.1,32.3,30.24,East,93,5.0,0.0,56,0.00,,,0.00,164,WeatherHawk,2017-03-29 20:09:00,
2017-03-29 15:14:00,47.2,32.4,30.25,East,101,4.0,0.0,56,0.00,,,0.00,211,WeatherHawk,2017-03-29 20:14:00,
2017-03-29 15:19:00,47.4,33.0,30.24,ENE,57,5.0,0.0,57,0.00,,,0.00,156,WeatherHawk,2017-03-29 20:19:00,
2017-03-29 15:24:00,46.9,32.5,30.24,East,85,8.0,0.0,57,0.00,,,0.00,135,WeatherHawk,2017-03-29 20:24:00,
2017-03-29 15:29:00,47.0,32.5,30.23,East,93,4.0,0.0,57,0.00,,,0.00,130,WeatherHawk,2017-03-29 20:29:00,
2017-03-29 15:34:00,46.8,31.9,30.23,ESE,107,5.0,0.0,56,0.00,,,0.00,113,WeatherHawk,2017-03-29 20:34:00,
2017-03-29 15:39:00,46.6,32.2,30.24,ENE,75,9.0,0.0,57,0.00,,,0.00,83,WeatherHawk,2017-03-29 20:39:00,
2017-03-29 15:44:00,46.5,32.1,30.21,NNE,25,8.0,0.0,57,0.00,,,0.00,80,WeatherHawk,2017-03-29 20:44:00,
2017-03-29 15:49:00,46.4,31.6,30.23,ENE,67,11.0,0.0,56,0.00,,,0.00,88,WeatherHawk,2017-03-29 20:49:00,
2017-03-29 15:54:00,46.3,31.9,30.23,NE,50,7.0,0.0,57,0.00,,,0.00,74,WeatherHawk,2017-03-29 20:54:00,
2017-03-29 15:59:00,46.2,31.8,30.22,NNE,21,7.0,0.0,57,0.00,,,0.00,57,WeatherHawk,2017-03-29 20:59:00,
2017-03-29 16:04:00,46.1,31.3,30.21,ESE,119,7.0,0.0,56,0.00,,,0.00,51,WeatherHawk,2017-03-29 21:04:00,
2017-03-29 16:09:00,46.2,31.8,30.21,East,91,6.0,0.0,57,0.00,,,0.00,76,WeatherHawk,2017-03-29 21:09:00,
2017-03-29 16:14:00,46.2,31.8,30.21,NNW,342,8.0,0.0,57,0.00,,,0.00,86,WeatherHawk,2017-03-29 21:14:00,
2017-03-29 16:19:00,46.2,32.2,30.19,NE,47,6.0,0.0,58,0.00,,,0.00,88,WeatherHawk,2017-03-29 21:19:00,
2017-03-29 16:24:00,46.1,31.7,30.19,East,81,6.0,0.0,57,0.00,,,0.00,78,WeatherHawk,2017-03-29 21:24:00,
2017-03-29 16:29:00,45.9,32.4,30.18,NE,48,4.0,0.0,59,0.00,,,0.00,74,WeatherHawk,2017-03-29 21:29:00,
2017-03-29 16:34:00,45.9,32.4,30.19,ENE,63,7.0,0.0,59,0.00,,,0.00,59,WeatherHawk,2017-03-29 21:34:00,
2017-03-29 16:39:00,45.8,32.3,30.19,ENE,63,5.0,0.0,59,0.00,,,0.00,44,WeatherHawk,2017-03-29 21:39:00,